Погода в Долизи

Республика Конго     4°11′57″S   12°40′06″E
темп.,
°C
ветер,
м/с
пор.,
м/с
влажн.,
%
обл.,
%
осадки,
мм/ч
давл.,
гПа
погр.,
м
31 июля, сб
сб3101:00+19юз23914 0.0 1015107
04:00+18юз249633 0.0 1015163
07:00+19юз238932 0.0 1017245
10:00+26юз23551 0.0 1016790
13:00+31юз33395 0.0 10131436
16:00+31юз323639 0.0 10111961
19:00+26юз48554 0.0 1013358
22:00+21юз37760 0.0 1015232
1 августа, вс
вс101:00+19юз36888 0.0 1014254
04:00+18юз239432 0.0 1015182
07:00+19юз238276 0.0 1017417
10:00+26юз11541 0.0 1018812
13:00+31юз32375 0.0 10141438
16:00+32юз42362 0.0 10111844
19:00+23юз511654 0.0 1014423
22:00+20юз410805 0.0 1016346
2 августа, пн
пн201:00+19зюз299035 0.0 1016466
04:00+20зюз378490 0.0 1016588
07:00+20зюз247979 0.0 1018630
10:00+26зюз23525 0.0 10181030
13:00+31зюз33356 0.0 10141635
16:00+31зюз42346 0.0 10121978
19:00+24юз595714 0.0 1014401
22:00+21юз477596 0.0 1016252
3 августа, вт
вт301:00+19юз278899 0.0 1015252
04:00+18зюз249730 0.0 1016172
07:00+19зюз368260 0.0 1017522
10:00+25юз23515 0.0 1018964
13:00+31зюз333360 0.0 10141693
16:00+31зюз433241 0.0 10121928
19:00+24юз6105698 0.0 1015481
22:00+20юз4974100 0.0 1017321
4 августа, ср
ср401:00+18юз278791 0.0 1016285
04:00+17зюз129619 0.0 101765
07:00+17ююз129333 0.0 1018115
10:00+26юз23475 0.0 1018886
13:00+31юз333085 0.0 10151534
16:00+32юз33285 0.0 10121842
19:00+24юз510545 0.0 1015443
22:00+20юз49743 0.0 1017330